Weather History for St. Thomas, VI

Change the Weather History Date:

Tuesday, January 24, 2012

  Actual Average Record
Temperature  
Mean Temperature 79 °F 79 °F  
Max Temperature 83 °F 85 °F 92 °F (1995)
Min Temperature 74 °F 72 °F 67 °F (1956)
Degree Days  
Heating Degree Days 0 0  
Month to date heating degree days 0 0  
Since 1 July heating degree days 0 0  
Cooling Degree Days 14 14  
Month to date cooling degree days 223 336  
Year to date cooling degree days 223 336  
Growing Degree Days 28 (Base 50)    
Moisture  
Dew Point 65 °F    
Average Humidity 67    
Maximum Humidity 79    
Minimum Humidity 54    
Precipitation  
Precipitation 0.02 in 0.07 in 0.62 in (1954)
Month to date precipitation 1.63 1.93  
Year to date precipitation 1.63 1.93  
Snow  
Snow 0.00 in - - ()
Month to date snowfall 0.0  
Since 1 July snowfall 0.0  
Snow Depth 0.00 in    
Sea Level Pressure  
Sea Level Pressure 30.02 in    
Wind  
Wind Speed 11 mph (NNE)    
Max Wind Speed 17 mph    
Max Gust Speed 29 mph    
Visibility 10 miles    
Events Rain    
T = Trace of Precipitation, MM = Missing Value Source: NWS Daily Summary

Daily Weather History Graph

Daily Weather History Graph

Search for Another Location

Airport:

Trip Planner

Search our weather history database for the weather conditions in past years. The results will help you decide how hot, cold, wet, or windy it might be!

Date:

Astronomy

Jan. 24, 2012 Rise Set
Actual Time 6:54 AM AST 6:09 PM AST
Civil Twilight 6:31 AM AST 6:32 PM AST
Nautical Twilight 6:05 AM AST 6:58 PM AST
Astronomical Twilight 5:38 AM AST 7:25 PM AST
Moon 7:39 AM AST (1/24) 7:34 PM AST (1/24)
Length of Visible Light 12h 00m
Length of Day
11h 14m
New Moon, 2% of the Moon is Illuminated
Jan 24
New Moon
Jan 31
First Quarter
Feb 7
Full
Feb 14
Last Quarter
Feb 21
New

Hourly Weather History & Observations

Time (AST) Temp. Heat Index Dew Point Humidity Pressure Visibility Wind Dir Wind Speed Gust Speed Precip Events Conditions
12:53 AM - - - N/A% 30.03 in 10.0 mi NNE 18.4 mph 31.1 mph 0.01 in Rain Light Rain
1:53 AM - - - N/A% 30.00 in 10.0 mi NNE 16.1 mph 23.0 mph 0.01 in   Overcast
2:53 AM - - - N/A% 29.98 in 10.0 mi NNE 13.8 mph 23.0 mph N/A   Mostly Cloudy
3:53 AM - - - N/A% 29.97 in 10.0 mi North 16.1 mph 25.3 mph N/A   Scattered Clouds
4:53 AM - - - N/A% 29.98 in 10.0 mi NNE 15.0 mph 23.0 mph N/A   Mostly Cloudy
5:53 AM - - - N/A% 29.99 in 9.0 mi North 12.7 mph 26.5 mph 0.00 in Rain Light Rain
6:53 AM - - - N/A% 30.01 in 10.0 mi NNE 10.4 mph 21.9 mph 0.00 in   Scattered Clouds
7:53 AM - - - N/A% 30.03 in 10.0 mi NNE 11.5 mph 21.9 mph N/A   Partly Cloudy
8:53 AM - - - N/A% 30.06 in 10.0 mi ENE 9.2 mph - N/A   Scattered Clouds
9:53 AM - - - N/A% 30.08 in 10.0 mi NNE 11.5 mph - N/A   Overcast
10:53 AM - - - N/A% 30.07 in 10.0 mi North 11.5 mph 21.9 mph 0.00 in   Partly Cloudy
11:53 AM 75.9 °F - 64.9 °F 69% 30.05 in 10.0 mi North 10.4 mph 24.2 mph N/A   Mostly Cloudy
12:53 PM 77.0 °F - 64.0 °F 64% 30.02 in 10.0 mi North 17.3 mph 28.8 mph N/A   Overcast
1:53 PM 82.0 °F 83.4 °F 64.0 °F 54% 30.00 in 10.0 mi NNE 10.4 mph 21.9 mph N/A   Scattered Clouds
2:53 PM 81.0 °F 82.2 °F 63.0 °F 54% 29.99 in 10.0 mi NE 8.1 mph 18.4 mph N/A   Partly Cloudy
3:53 PM 80.1 °F 81.5 °F 63.0 °F 56% 29.99 in 10.0 mi NNE 8.1 mph 19.6 mph N/A   Clear
4:53 PM 78.1 °F - 63.0 °F 60% 30.00 in 10.0 mi NNE 9.2 mph 19.6 mph N/A   Scattered Clouds
5:53 PM 77.0 °F - 64.0 °F 64% 30.01 in 10.0 mi NNE 11.5 mph 20.7 mph N/A   Clear
6:53 PM 75.0 °F - 64.9 °F 71% 30.01 in 10.0 mi North 10.4 mph - N/A   Partly Cloudy
7:53 PM 73.9 °F - 66.0 °F 76% 30.02 in 10.0 mi NNE 3.5 mph - N/A   Clear
8:53 PM 73.9 °F - 66.0 °F 76% 30.04 in 10.0 mi NNE 8.1 mph - N/A   Clear
10:53 PM 75.0 °F - 64.9 °F 71% 30.05 in 10.0 mi North 11.5 mph - N/A   Partly Cloudy
11:20 PM 75.2 °F - 66.2 °F 73% 30.04 in 10.0 mi North 10.4 mph - N/A   Mostly Cloudy
11:32 PM 75.2 °F - 64.4 °F 69% 30.04 in 10.0 mi North 10.4 mph - N/A   Scattered Clouds
11:53 PM 75.0 °F - 64.9 °F 71% 30.04 in 10.0 mi NNE 11.5 mph - N/A   Clear